This demonstration page uses our WeatherBlox Daily Observations layout. Learn more.

Left ArrowRight Arrow

39.29038, -76.61219

Hourly Observations for May 28, 2021

Temp ( °F °C ) Dew Point ( °F °C ) Humidity (%) Winds ( mph kmh ) Pressure ( in mb ) Visibility ( mi km ) Precip ( " mm )
12:54 am 00:54 Mostly Cloudy 70 21.1 55 12.8 59 59 N N/A 29.99 1016 10 16 N/A
1:54 am 01:54 Mostly Cloudy 69 20.6 57 13.9 66 66 N N/A 29.99 1016 10 16 N/A
2:54 am 02:54 Mostly Cloudy 70 21.1 52 11.1 53 53 ENE 10 17 29.99 1016 10 16 N/A
3:54 am 03:54 Mostly Cloudy 69 20.6 53 11.7 57 57 E 12 19 29.98 1015 10 16 N/A
4:54 am 04:54 Mostly Cloudy 68 20 52 11.1 57 57 ENE 12 19 29.99 1016 10 16 N/A
5:54 am 05:54 Mostly Cloudy 67 19.4 46 7.8 47 47 E 15 24 29.97 1015 10 16 N/A
6:54 am 06:54 Mostly Cloudy 68 20 47 8.3 47 47 E 17 28 29.98 1015 10 16 N/A
7:54 am 07:54 Mostly Cloudy 68 20 49 9.4 51 51 E 13 20 29.97 1015 10 16 N/A
8:54 am 08:54 Mostly Cloudy 68 20 50 10 53 53 E 17 28 29.97 1015 10 16 N/A
9:54 am 09:54 Mostly Cloudy 70 21.1 52 11.1 53 53 E 15 24 29.96 1015 10 16 N/A
10:54 am 10:54 Mostly Cloudy 72 22.2 52 11.1 50 50 E 15 24 29.94 1014 10 16 N/A
11:54 am 11:54 Mostly Cloudy 71 21.7 53 11.7 53 53 ENE 14 22 29.92 1013 10 16 N/A
12:54 pm 12:54 Mostly Cloudy 74 23.3 57 13.9 56 56 ENE 14 22 29.90 1012 10 16 N/A
1:54 pm 13:54 Cloudy with Light Rain 71 21.7 59 15 66 66 E 13 20 29.87 1011 10 16 0.00 0.00
2:54 pm 14:54 Cloudy with Light Rain 70 21.1 60 15.6 71 71 E 16 26 29.83 1010 10 16 0.00 0.00
3:54 pm 15:54 Cloudy 69 20.6 58 14.4 68 68 E 21 33 29.80 1009 10 16 0.01 0.25
4:23 pm 16:23 Cloudy 69 20.6 58 14.4 68 68 E 15 24 29.80 1009 10 16 N/A
4:54 pm 16:54 Mostly Cloudy 69 20.6 58 14.4 68 68 E 15 24 29.78 1009 10 16 N/A
5:54 pm 17:54 Cloudy 67 19.4 58 14.4 73 73 E 15 24 29.76 1008 10 16 N/A
6:54 pm 18:54 Cloudy 67 19.4 59 15 76 76 ENE 14 22 29.75 1008 10 16 N/A
7:29 pm 19:29 Cloudy with Rain 65 18.3 60 15.6 84 84 E 12 19 29.75 1007 3 5 0.02 0.51
7:33 pm 19:33 Cloudy with Strong Thunderstorms 64 17.8 60 15.6 87 87 ENE 14 22 29.75 1007 2 2 0.15 3.81
7:54 pm 19:54 Cloudy with Strong Thunderstorms 63 17.2 60 15.6 90 90 NE 10 17 29.76 1008 1 2 0.70 17.78
8:07 pm 20:07 Cloudy with Thunderstorms 63 17.2 60 15.6 90 90 NE 9 15 29.76 1008 3 4 0.07 1.78
8:26 pm 20:26 Cloudy with Rain 63 17.2 60 15.6 90 90 NE 15 24 29.76 1008 4 6 0.16 4.06
8:54 pm 20:54 Cloudy with Light Rain 62 16.7 59 15 90 90 NE 13 20 29.76 1008 5 8 0.19 4.83
9:54 pm 21:54 Cloudy with Mist and Fog 60 15.6 56 13.3 86 86 NE 10 17 29.76 1008 6 10 0.00 0.00
10:54 pm 22:54 Cloudy with Light Rain 58 14.4 55 12.8 90 90 NE 10 17 29.77 1008 6 10 0.05 1.27
11:54 pm 23:54 Cloudy with Light Rain 57 13.9 53 11.7 87 87 NNE 10 17 29.77 1008 7 11 0.00 0.00

Powered by AerisWeather